Zurück zum Katalog

STARLINK-33767

AktivKommunikationVLEO
NORAD 63722·PAYLOAD·🇺🇸 United States

Gestartet Apr 28, 2025 von Vandenberg Space Force Base

Loading…

Nächste Überflüge (nächste 24 Stunden)

TLE

AktuellSource: CelesTrak SupGP

Epoche: Sep 14, 2026, 21:05 UTC

1 63722C 25087AB  26257.87895833  .00034465  00000+0  10184-2 0  2579
2 63722  53.1608  59.8857 0001139  63.9370  96.0105 15.34368994    13

Verfolge STARLINK-33767 in Echtzeit mit AllMySat

Download on the App Store